Вернуться в каталог

PULSAR-0

АктивенНаукаSSO
NORAD 64541·PAYLOAD·🇺🇸 United States

Запущен Jun 23, 2025 с Vandenberg Space Force Base

Loading…

Ближайшие Пролёты (ближайшие 24 часа)

TLE

СвежийSource: Space-Track

Эпоха: Sep 14, 2026, 06:16 UTC

1 64541U 25135P   26257.26122800  .00002518  00000-0  11775-3 0  9999
2 64541  97.4775  11.1298 0002016 204.7741 155.3397 15.20700583 68364

Отслеживайте PULSAR-0 в реальном времени с AllMySat

Download on the App Store